Regional Weather Roundup
Issued by NWS Sioux Falls, SD

Home | Current Version | Previous Version | Text Only | Print | Product List | Glossary Off
Versions: 1 2 3 4 5 6 7 8 9 10 11 12 13 14 15 16 17 18 19 20 21 22 23 24 25 26 27 28 29 30 31 32 33 34 35 36 37 38 39 40 41 42 43 44 45 46 47 48 49 50

000
ASUS43 KFSD 171602
RWRFSD

WEATHER ROUNDUP FOR SE SOUTH DAKOTA/SW MINNESOTA/NW IOWA
NATIONAL WEATHER SERVICE SIOUX FALLS SD
1000 AM CST SUN DEC 17 2017

NOTE: "FAIR" INDICATES FEW OR NO CLOUDS BELOW 12,000 FEET WITH NO
SIGNIFICANT WEATHER AND OR OBSTRUCTIONS TO VISIBILITY.


SDZ038>040-050-052>070-171700-
SOUTHEAST SOUTH DAKOTA

CITY           SKY/WX    TMP DP  RH WIND       PRES   REMARKS
BROOKINGS      CLOUDY    27  27 100 CALM      30.05R
CHAMBERLAIN    CLOUDY    33  33 100 CALM      30.07R
HURON          CLOUDY    31  30  96 MISG      30.06S
MADISON        FAIR      28  28 100 N3        30.04S
MITCHELL       CLOUDY    32  31  96 NW5       30.07S FOG     WCI  27
SIOUX FALLS    CLOUDY    27  27 100 NE5       30.04F FOG     WCI  22
WINNER         CLOUDY    35  31  85 W3        30.05F
YANKTON        MOSUNNY   26  25  96 NW7       30.07R FOG     WCI  18
$$

MNZ071-072-080-081-089-090-097-098-171700-
SOUTHWEST MINNESOTA

CITY           SKY/WX    TMP DP  RH WIND       PRES   REMARKS
FAIRMONT       CLOUDY    26  23  88 N8        30.05F WCI  18
JACKSON        CLOUDY    27  25  93 N7        30.04S WCI  19
LUVERNE        CLOUDY    27  27 100 N5        30.04F FOG     WCI  21
MARSHALL       CLOUDY    26  24  92 CALM      30.07R FOG
MONTEVIDEO     CLOUDY    27  27 100 CALM      30.09R FOG
PIPESTONE      CLOUDY    27  25  93 CALM      30.03S FOG
REDWOOD FALLS  CLOUDY    27  23  85 NE3       30.08R FOG
WINDOM           N/A     27  16  63 NE3       30.05S HAZE
WORTHINGTON    FOG       25  25 100 N8        30.04S VSB 3/4 WCI  16
$$

IAZ001>003-012>014-020>022-031-032-NEZ013-014-SDZ071-171700-
NORTHWEST IOWA

CITY           SKY/WX    TMP DP  RH WIND       PRES   REMARKS
CHEROKEE       CLOUDY    30  29  96 NE8       30.03S FOG     WCI  22
ESTHERVILLE    CLOUDY    25  25 100 N9        30.03S FOG     WCI  15
LE MARS        CLOUDY    28  27  93 N9        30.04R FOG     WCI  20
ORANGE CITY    CLOUDY    28  28 100 NE6       30.03S FOG     WCI  22
SHELDON        CLOUDY    27  27 100 NE8       30.02S FOG     WCI  18
SIOUX CITY     CLOUDY    30  27  88 CALM      30.05R
SPENCER        CLOUDY    27  25  92 NE10      30.04R FOG     WCI  17
STORM LAKE     CLOUDY    27  27 100 NE15      30.01R FOG     WCI  15
$$

ABBREVIATIONS USED IN REMARKS
   TC - TEMPERATURE IN CELSIUS
  WCI - WIND CHILL INDEX
   HX - HEAT INDEX
  VSB - VISIBILITY





USA.gov is the U.S. government's official web portal to all federal, state and local government web resources and services.